Regional Weather Roundup
Issued by NWS

Home | Current Version | Previous Version | Graphics & Text | Print | Product List | Glossary On
Versions: 1 2 3 4 5 6 7 8 9 10 11 12 13 14 15 16 17 18 19 20 21 22 23 24 25 26 27 28 29 30 31 32 33 34 35 36 37 38 39 40 41 42 43 44 45 46 47 48 49 50
000
ASUS43 KOAX 260802
RWRNE

WEATHER ROUNDUP FOR NEBRASKA
NATIONAL WEATHER SERVICE OMAHA NE
300 AM CDT WED APR 26 2017

NOTES: SATELLITE DATA IS BEING USED TO AUGMENT CLOUD COVER ABOVE
       12000 FEET.
       "FAIR" INDICATES FEW OR NO CLOUDS BELOW 12,000 FEET WITH NO
       SIGNIFICANT WEATHER AND/OR OBSTRUCTIONS TO VISIBILITY.

  * THESE STATIONS DO NOT REPORT WEATHER SUCH AS RAIN...SNOW OR FOG.

NEZ001>004-019>022-054>056-260900-
NEBRASKA PANHANDLE

CITY           SKY/WX    TMP DP  RH WIND       PRES   REMARKS
SCOTTSBLUFF    CLOUDY    33  26  75 NW12      29.84F WCI  24
ALLIANCE       CLOUDY    27  23  85 N14       29.82F WCI  16
CHADRON        CLOUDY    29  25  85 N9        29.88F WCI  20
KIMBALL        CLOUDY    32  31  96 NW14      29.81F WCI  22
SIDNEY         CLOUDY    27  25  92 NW9       29.81F WCI  18
$$

NEZ057>060-069>072-079>082-260900-
SOUTHWEST NEBRASKA

CITY           SKY/WX    TMP DP  RH WIND       PRES   REMARKS
NORTH PLATTE   LGT SNOW  32  27  81 NW16G24   29.79S WCI  21
IMPERIAL       CLOUDY    32  26  78 NW13      29.79F WCI  22
LEXINGTON      CLOUDY    34  29  82 NW20G30   29.73F WCI  23
MCCOOK         CLOUDY    36  27  69 N22G33    29.75F WCI  25
OGALLALA       CLOUDY    33  26  75 N20G26    29.81S WCI  21
$$

NEZ005>010-023>029-035>040-094-260900-
NORTH CENTRAL NEBRASKA

CITY           SKY/WX    TMP DP  RH WIND       PRES   REMARKS
VALENTINE      LGT SNOW  31  25  78 NW15G25   29.80F WCI  20
AINSWORTH      CLOUDY    30  28  93 N22G28    29.78F WCI  17
BROKEN BOW     CLOUDY    33  27  78 N24G37    29.73F WCI  20
O`NEILL        CLOUDY    33  31  94 NW22      29.73F FOG     WCI  20
ORD            CLOUDY    33  28  81 N28G33    29.70F WCI  20
THEDFORD       CLOUDY    32  27  80 NW18G24   29.79S WCI  20
$$

NEZ041-046>049-061>064-073>077-083>087-260900-
SOUTH CENTRAL NEBRASKA

CITY           SKY/WX    TMP DP  RH WIND       PRES   REMARKS
GRAND ISLAND   CLOUDY    35  33  92 N21G31    29.70S WCI  24
AURORA         CLOUDY    37  34  90 N17G26    29.68S WCI  27
HASTINGS       CLOUDY    36  32  85 N26G32    29.70R WCI  24
HEBRON         CLOUDY    38  33  81 N15G22    29.67S WCI  30
HOLDREGE       CLOUDY    35  30  83 N20G31    29.71S WCI  24
KEARNEY *      CLOUDY    36  28  75 N24G32    29.71F WCI  24
YORK           CLOUDY    36  32  87 N17G25    29.66F WCI  25
$$

NEZ011>018-030>034-042>045-260900-
NORTHEAST NEBRASKA

CITY           SKY/WX    TMP DP  RH WIND       PRES   REMARKS
NORFOLK        CLOUDY    34  30  85 N24       29.66F WCI  21
ALBION         CLOUDY    35  32  87 N22G29    29.67F WCI  24
BLAIR          LGT RAIN  37  36  94 NW20G26   29.59S WCI  27
FREMONT        CLOUDY    37  36  94 NW13G20   29.64R WCI  29
TEKAMAH        CLOUDY    38  35  89 NW18      29.61S WCI  28
WAYNE          CLOUDY    34  34  99 NW22G29   29.65R WCI  22
$$

NEZ050>053-065>068-078-088>093-260900-
SOUTHEAST NEBRASKA

CITY           SKY/WX    TMP DP  RH WIND       PRES   REMARKS
LINCOLN        CLOUDY    39  33  79 NW17      29.65R WCI  30
OMAHA EPPLEY   CLOUDY    40  35  83 NW20G26   29.58F WCI  30
BEATRICE       CLOUDY    39  36  87 N18       29.64S WCI  30
FALLS CITY     CLOUDY    43  39  86 NW18G28   29.55F
NEBRASKA CITY  CLOUDY    40  36  86 N15G26    29.57F WCI  32
PLATTSMOUTH    CLOUDY    39  35  86 NW16      29.58S WCI  31
$$

NEZ044-045-051>053-067-260900-
OMAHA AREA

CITY           SKY/WX    TMP DP  RH WIND       PRES   REMARKS
OMAHA EPPLEY   CLOUDY    40  35  83 NW20G26   29.58F WCI  30
BLAIR          LGT RAIN  37  36  94 NW20G26   29.59S WCI  27
FREMONT        CLOUDY    37  36  94 NW13G20   29.64R WCI  29
MILLARD        CLOUDY    40  38  90 NW10G21   29.61R FOG     WCI  34
OFFUTT AFB     CLOUDY    40  36  86 NW14G21   29.59S WCI  32
PLATTSMOUTH    CLOUDY    39  35  86 NW16      29.58S WCI  31
WAHOO          CLOUDY    37  33  85 NW20G29   29.63R WCI  27
$$



USA.gov is the U.S. government's official web portal to all federal, state and local government web resources and services.